Flag for Ireland Weather past 2 weeks in Dublin, Ireland

Now
43 °F

Passing clouds.


Feels Like: 36 °F
Forecast: 39 / 53 °F
Wind: 14 mph from East

Location: Dublin Airport

Current Time: Apr 18, 2015 at 8:17:14 AM

Latest Report: Apr 18, 2015 at 7:30 AM


Visibility: N/A

Pressure: 30.39 "Hg

Humidity: 81%

Dew point: 37 °F

Location of DublinLocation

Historic Weather in Dublin — Graph

°F

Dublin temperature yesterday

Maximum temperature yesterday: 54 °F (at 12:30 PM)
Minimum temperature yesterday: 30 °F (at 1:30 AM)
Average temperature yesterday: 44 °F

Past Weeks' High & Low Weather Summary

 TemperatureHumidityPressure
High64 °F (Apr 9, 4:30 PM)100% (Apr 3, 7:30 AM)30.63 "Hg (Apr 3, 7:30 AM)
Low30 °F (Apr 17, 1:30 AM)32% (Apr 9, 2:30 PM)29.68 "Hg (Apr 10, 8:30 PM)
Average47 °F79%30.21 "Hg
* Reported Apr 3 7:00 AM — Apr 18 7:00 AM, Dublin, Weather by CustomWeather, © 2015

Note: Actual official high and low records may vary slightly from our data, if they occured in-between our weather recording intervals... More about our weather records

Advertising

Dublin weather history for previous 24 hours

 ConditionsComfort  
Time TempWeatherWind HumidityBarometerVisibility
7:00 AM
Sat, Apr 18
43 °FPassing clouds.15 mph81%30.36 "HgN/A
6:30 AM43 °FPassing clouds.10 mph87%30.36 "HgN/A
6:00 AM43 °FPassing clouds.14 mph93%30.36 "HgN/A
5:30 AM43 °FPassing clouds.16 mph93%30.36 "HgN/A
5:00 AM45 °FClear.16 mph87%30.36 "Hg10 mi
4:30 AM45 °FClear.16 mph87%30.36 "Hg10 mi
4:00 AM45 °FClear.14 mph87%30.36 "Hg10 mi
3:30 AM45 °FClear.14 mph87%30.36 "Hg10 mi
3:00 AM45 °FClear.13 mph87%30.36 "Hg10 mi
2:30 AM45 °FClear.13 mph87%30.36 "Hg10 mi
2:00 AM45 °FClear.15 mph87%30.33 "Hg10 mi
1:30 AM46 °FClear.14 mph82%30.33 "Hg10 mi
1:00 AM46 °FPassing clouds.14 mph82%30.33 "HgN/A
12:30 AM46 °FPartly cloudy.13 mph87%30.33 "HgN/A
12:00 AM46 °FPartly cloudy.8 mph87%30.30 "HgN/A
11:30 PM
Fri, Apr 17
46 °FPassing clouds.9 mph82%30.30 "HgN/A
11:00 PM48 °FClear.16 mph76%30.30 "Hg10 mi
10:00 PM48 °FPassing clouds.9 mph82%30.27 "HgN/A
9:30 PM48 °FPassing clouds.9 mph82%30.27 "HgN/A
9:00 PM48 °FPartly sunny.6 mph82%30.24 "HgN/A
8:30 PM48 °FPartly sunny.7 mph82%30.24 "HgN/A
8:00 PM50 °FBroken clouds.12 mph76%30.24 "HgN/A
7:30 PM52 °FBroken clouds.10 mph67%30.21 "HgN/A
7:00 PM52 °FBroken clouds.13 mph67%30.21 "HgN/A
6:30 PM52 °FBroken clouds.10 mph72%30.21 "HgN/A
6:00 PM50 °FBroken clouds.13 mph76%30.18 "HgN/A
5:30 PM54 °FBroken clouds.12 mph72%30.18 "HgN/A
5:00 PM54 °FBroken clouds.9 mph72%30.18 "HgN/A
4:30 PM54 °FBroken clouds.12 mph67%30.15 "HgN/A
4:00 PM54 °FPartly sunny.13 mph72%30.15 "HgN/A
3:30 PM54 °FPartly sunny.13 mph72%30.15 "HgN/A
3:00 PM52 °FPartly sunny.13 mph72%30.15 "HgN/A
2:30 PM54 °FPartly sunny.13 mph63%30.15 "HgN/A
2:00 PM52 °FPartly sunny.13 mph72%30.15 "HgN/A
1:30 PM52 °FPartly sunny.13 mph72%30.15 "HgN/A
1:00 PM54 °FScattered clouds.13 mph67%30.15 "HgN/A
12:30 PM54 °FScattered clouds.14 mph67%30.12 "HgN/A
12:00 PM52 °FPassing clouds.14 mph72%30.12 "HgN/A
11:30 AM52 °FPassing clouds.13 mph72%30.12 "HgN/A
11:00 AM52 °FPassing clouds.12 mph72%30.12 "HgN/A
10:30 AM52 °FPassing clouds.12 mph77%30.09 "HgN/A
10:00 AM50 °FPassing clouds.13 mph76%30.09 "HgN/A
9:30 AM50 °FScattered clouds.14 mph82%30.07 "Hg6 mi
9:00 AM46 °FScattered clouds.13 mph93%30.07 "Hg4 mi
8:30 AM45 °FScattered clouds.7 mph93%30.07 "Hg4 mi
8:00 AM39 °FScattered clouds.7 mph100%30.07 "Hg5 mi
Weather by CustomWeather, © 2015

See weather overviewHow to use our weather pages